| time (UTC) | temp C | wind direction | speed KPH | gust KPH | rain 1hr cm | rain 24hr cm | rain mn cm | humidity % | barometer mb |
| 20260831110308 | 11 | 237 | 0.0 | 0.0 | 0.00 | 0.05 | 0.00 | 83 | 1016.8 |
| 20260831105804 | 11 | 237 | 0.0 | 0.0 | 0.00 | 0.05 | 0.00 | 84 | 1016.8 |
| 20260831104804 | 11 | 237 | 0.0 | 0.0 | 0.00 | 0.05 | 0.00 | 84 | 1016.8 |
| 20260831104304 | 11 | 241 | 0.0 | 0.0 | 0.00 | 0.05 | 0.00 | 85 | 1016.8 |
| 20260831103804 | 11 | 241 | 0.0 | 0.0 | 0.00 | 0.05 | 0.00 | 87 | 1016.8 |
| 20260831103303 | 11 | 256 | 0.0 | 0.0 | 0.00 | 0.05 | 0.00 | 85 | 1016.7 |
| 20260831102802 | 11 | 256 | 0.0 | 0.0 | 0.00 | 0.05 | 0.00 | 85 | 1016.6 |
| 20260831102306 | 11 | 256 | 0.0 | 0.0 | 0.00 | 0.05 | 0.00 | 86 | 1016.6 |
| 20260831101806 | 11 | 256 | 0.0 | 0.0 | 0.00 | 0.05 | 0.00 | 86 | 1016.6 |
| 20260831100307 | 12 | 256 | 0.0 | 0.0 | 0.00 | 0.05 | 0.00 | 84 | 1016.4 |
| 20260831095809 | 12 | 256 | 0.0 | 0.0 | 0.00 | 0.05 | 0.00 | 85 | 1016.4 |
| 20260831095309 | 12 | 256 | 0.0 | 0.0 | 0.00 | 0.05 | 0.00 | 84 | 1016.4 |
| 20260831094310 | 12 | 256 | 0.0 | 0.0 | 0.00 | 0.05 | 0.00 | 84 | 1016.4 |
| 20260831093308 | 12 | 256 | 0.0 | 0.0 | 0.00 | 0.05 | 0.00 | 84 | 1016.5 |
| 20260831092804 | 12 | 256 | 0.0 | 0.0 | 0.00 | 0.05 | 0.00 | 83 | 1016.4 |
| 20260831091757 | 12 | 256 | 0.0 | 0.0 | 0.00 | 0.05 | 0.00 | 82 | 1016.4 |
| 20260831091252 | 12 | 256 | 0.0 | 0.0 | 0.00 | 0.05 | 0.00 | 82 | 1016.5 |
| 20260831090246 | 12 | 256 | 0.0 | 0.0 | 0.00 | 0.05 | 0.00 | 81 | 1016.4 |
| 20260831085748 | 12 | 256 | 0.0 | 0.0 | 0.00 | 0.05 | 0.00 | 82 | 1016.4 |
| 20260831085245 | 12 | 256 | 0.0 | 0.0 | 0.00 | 0.05 | 0.00 | 82 | 1016.4 |
| 20260831084745 | 12 | 256 | 0.0 | 0.0 | 0.00 | 0.05 | 0.00 | 82 | 1016.4 |
| 20260831084241 | 12 | 11 | 0.0 | 0.0 | 0.00 | 0.05 | 0.00 | 81 | 1016.4 |
| 20260831083742 | 12 | 11 | 0.0 | 0.0 | 0.00 | 0.05 | 0.00 | 82 | 1016.5 |
| 20260831083237 | 12 | 11 | 0.0 | 0.0 | 0.00 | 0.05 | 0.00 | 81 | 1016.5 |
| 20260831082736 | 12 | 11 | 0.0 | 0.0 | 0.00 | 0.05 | 0.00 | 81 | 1016.5 |
| 20260831082233 | 12 | 11 | 0.0 | 0.0 | 0.00 | 0.05 | 0.00 | 81 | 1016.4 |
| 20260831081733 | 12 | 11 | 0.0 | 0.0 | 0.00 | 0.05 | 0.00 | 82 | 1016.3 |
| 20260831080731 | 12 | 11 | 0.0 | 0.0 | 0.00 | 0.05 | 0.00 | 83 | 1016.3 |
| 20260831080233 | 12 | 11 | 0.0 | 0.0 | 0.00 | 0.05 | 0.00 | 82 | 1016.2 |
| 20260831074733 | 12 | 11 | 0.0 | 0.0 | 0.00 | 0.05 | 0.00 | 82 | 1016.2 |
| 20260831074230 | 12 | 11 | 0.0 | 0.0 | 0.00 | 0.05 | 0.00 | 82 | 1016.2 |
| 20260831073734 | 12 | 11 | 0.0 | 0.0 | 0.00 | 0.05 | 0.00 | 82 | 1016.2 |
| 20260831073230 | 12 | 11 | 0.0 | 0.0 | 0.00 | 0.05 | 0.00 | 82 | 1016.2 |
| 20260831072738 | 12 | 11 | 0.0 | 0.0 | 0.00 | 0.05 | 0.00 | 81 | 1016.2 |
| 20260831072233 | 12 | 11 | 0.0 | 0.0 | 0.00 | 0.05 | 0.00 | 81 | 1016.2 |
| 20260831071732 | 12 | 11 | 0.0 | 0.0 | 0.00 | 0.05 | 0.00 | 80 | 1016.2 |
| 20260831071232 | 12 | 11 | 0.0 | 0.0 | 0.00 | 0.05 | 0.00 | 81 | 1016.1 |
| 20260831070735 | 12 | 11 | 0.0 | 0.0 | 0.00 | 0.05 | 0.00 | 80 | 1016.2 |
| 20260831065732 | 12 | 11 | 0.0 | 1.6 | 0.00 | 0.05 | 0.00 | 80 | 1016.3 |
| 20260831065231 | 12 | 273 | 0.0 | 1.6 | 0.00 | 0.05 | 0.00 | 79 | 1016.3 |
| 20260831064732 | 12 | 273 | 0.0 | 1.6 | 0.00 | 0.05 | 0.00 | 78 | 1016.3 |
| 20260831064232 | 12 | 273 | 0.0 | 1.6 | 0.00 | 0.05 | 0.00 | 78 | 1016.3 |
| 20260831063730 | 12 | 273 | 0.0 | 1.6 | 0.00 | 0.05 | 0.00 | 78 | 1016.3 |
| 20260831063233 | 12 | 273 | 0.0 | 1.6 | 0.00 | 0.05 | 0.00 | 76 | 1016.4 |
| 20260831062731 | 12 | 273 | 0.0 | 1.6 | 0.00 | 0.05 | 0.00 | 75 | 1016.3 |
| 20260831062232 | 12 | 273 | 0.0 | 1.6 | 0.00 | 0.05 | 0.00 | 74 | 1016.3 |
| 20260831061230 | 13 | 273 | 0.0 | 1.6 | 0.00 | 0.05 | 0.00 | 74 | 1016.4 |
| 20260831060731 | 13 | 165 | 0.0 | 0.0 | 0.00 | 0.05 | 0.00 | 70 | 1016.4 |
| 20260831060235 | 13 | 165 | 0.0 | 0.0 | 0.00 | 0.05 | 0.00 | 69 | 1016.4 |
| 20260831055735 | 13 | 165 | 0.0 | 0.0 | 0.00 | 0.05 | 0.05 | 68 | 1016.4 |
| 20260831055231 | 13 | 165 | 0.0 | 0.0 | 0.00 | 0.05 | 0.05 | 68 | 1016.4 |
| 20260831054733 | 13 | 164 | 0.0 | 0.0 | 0.00 | 0.05 | 0.05 | 69 | 1016.5 |
| 20260831054231 | 13 | 165 | 0.0 | 0.0 | 0.00 | 0.05 | 0.05 | 71 | 1016.4 |
| 20260831053731 | 13 | 164 | 0.0 | 0.0 | 0.00 | 0.05 | 0.05 | 72 | 1016.5 |
| 20260831053234 | 13 | 200 | 0.0 | 0.0 | 0.00 | 0.05 | 0.05 | 71 | 1016.5 |
| 20260831052731 | 13 | 200 | 0.0 | 0.0 | 0.00 | 0.05 | 0.05 | 70 | 1016.5 |
| 20260831051730 | 13 | 200 | 0.0 | 0.0 | 0.00 | 0.05 | 0.05 | 68 | 1016.6 |
| 20260831051232 | 13 | 200 | 0.0 | 0.0 | 0.00 | 0.05 | 0.05 | 70 | 1016.7 |
| 20260831050731 | 13 | 200 | 0.0 | 0.0 | 0.00 | 0.05 | 0.05 | 70 | 1016.8 |
| 20260831050234 | 13 | 200 | 0.0 | 0.0 | 0.00 | 0.05 | 0.05 | 70 | 1016.8 |
| 20260831045731 | 13 | 184 | 0.0 | 0.0 | 0.00 | 0.05 | 0.05 | 71 | 1016.8 |
| 20260831044733 | 13 | 228 | 0.0 | 0.0 | 0.00 | 0.05 | 0.05 | 71 | 1016.8 |
| 20260831043735 | 13 | 228 | 0.0 | 0.0 | 0.00 | 0.05 | 0.05 | 73 | 1016.8 |
| 20260831043230 | 13 | 229 | 0.0 | 0.0 | 0.00 | 0.05 | 0.05 | 73 | 1016.8 |
| 20260831041727 | 13 | 112 | 0.0 | 0.0 | 0.00 | 0.05 | 0.05 | 74 | 1016.7 |
| 20260831041225 | 14 | 112 | 0.0 | 1.6 | 0.00 | 0.05 | 0.05 | 73 | 1016.6 |
| 20260831040724 | 13 | 112 | 0.0 | 1.6 | 0.00 | 0.05 | 0.05 | 73 | 1016.6 |
| 20260831040224 | 13 | 112 | 0.0 | 1.6 | 0.00 | 0.05 | 0.05 | 71 | 1016.5 |
| 20260831035723 | 13 | 113 | 0.0 | 1.6 | 0.00 | 0.05 | 0.05 | 71 | 1016.4 |
| 20260831035226 | 13 | 113 | 0.0 | 0.0 | 0.00 | 0.05 | 0.05 | 72 | 1016.5 |
| 20260831034723 | 13 | 113 | 0.0 | 0.0 | 0.00 | 0.05 | 0.05 | 73 | 1016.5 |
| 20260831034224 | 13 | 113 | 0.0 | 0.0 | 0.00 | 0.05 | 0.05 | 72 | 1016.4 |
| 20260831033220 | 13 | 113 | 0.0 | 1.6 | 0.00 | 0.05 | 0.05 | 75 | 1016.5 |
| 20260831032719 | 13 | 112 | 0.0 | 1.6 | 0.00 | 0.05 | 0.05 | 76 | 1016.4 |
| 20260831032216 | 13 | 112 | 0.0 | 1.6 | 0.00 | 0.05 | 0.05 | 75 | 1016.5 |
| 20260831031715 | 13 | 112 | 0.0 | 1.6 | 0.00 | 0.05 | 0.05 | 75 | 1016.5 |
| 20260831031217 | 13 | 113 | 0.0 | 1.6 | 0.00 | 0.05 | 0.05 | 73 | 1016.5 |
| 20260831030714 | 13 | 111 | 0.0 | 1.6 | 0.00 | 0.05 | 0.05 | 73 | 1016.4 |
| 20260831030210 | 13 | 111 | 0.0 | 1.6 | 0.00 | 0.05 | 0.05 | 72 | 1016.3 |
| 20260831025708 | 13 | 111 | 0.0 | 1.6 | 0.00 | 0.05 | 0.05 | 71 | 1016.2 |
| 20260831024706 | 13 | 147 | 0.0 | 1.6 | 0.00 | 0.05 | 0.05 | 70 | 1016.1 |
| 20260831024209 | 13 | 147 | 0.0 | 1.6 | 0.00 | 0.05 | 0.05 | 70 | 1016.0 |
| 20260831023709 | 13 | 147 | 0.0 | 0.0 | 0.00 | 0.05 | 0.05 | 73 | 1016.0 |
| 20260831023205 | 13 | 147 | 0.0 | 0.0 | 0.00 | 0.05 | 0.05 | 69 | 1016.0 |
| 20260831022704 | 13 | 147 | 0.0 | 1.6 | 0.00 | 0.05 | 0.05 | 69 | 1015.9 |
| 20260831022204 | 13 | 147 | 0.0 | 1.6 | 0.00 | 0.05 | 0.05 | 72 | 1015.7 |
| 20260831021702 | 14 | 147 | 0.0 | 0.0 | 0.00 | 0.05 | 0.05 | 72 | 1015.6 |
| 20260831021203 | 14 | 147 | 0.0 | 1.6 | 0.00 | 0.05 | 0.05 | 72 | 1015.7 |
| 20260831020704 | 14 | 147 | 0.0 | 1.6 | 0.00 | 0.05 | 0.05 | 74 | 1015.6 |
| 20260831020203 | 14 | 99 | 0.0 | 0.0 | 0.00 | 0.05 | 0.05 | 69 | 1015.6 |
| 20260831015703 | 15 | 99 | 0.0 | 0.0 | 0.00 | 0.05 | 0.05 | 70 | 1015.6 |
| 20260831015203 | 15 | 99 | 0.0 | 1.6 | 0.00 | 0.05 | 0.05 | 67 | 1015.5 |
| 20260831014704 | 15 | 99 | 0.0 | 1.6 | 0.00 | 0.05 | 0.05 | 65 | 1015.5 |
| 20260831014204 | 15 | 99 | 0.0 | 1.6 | 0.00 | 0.05 | 0.05 | 65 | 1015.5 |
| 20260831013703 | 15 | 100 | 0.0 | 3.2 | 0.00 | 0.05 | 0.05 | 68 | 1015.5 |
| 20260831013203 | 15 | 99 | 0.0 | 3.2 | 0.00 | 0.05 | 0.05 | 67 | 1015.6 |
| 20260831012702 | 15 | 106 | 1.6 | 3.2 | 0.00 | 0.05 | 0.05 | 66 | 1015.6 |
| 20260831012202 | 15 | 96 | 1.6 | 3.2 | 0.00 | 0.05 | 0.05 | 63 | 1015.5 |
| 20260831011702 | 15 | 91 | 1.6 | 3.2 | 0.00 | 0.05 | 0.05 | 64 | 1015.6 |
| 20260831011203 | 15 | 78 | 1.6 | 3.2 | 0.00 | 0.05 | 0.05 | 64 | 1015.7 |
| 20260831010702 | 15 | 17 | 0.0 | 1.6 | 0.00 | 0.05 | 0.05 | 62 | 1015.6 |
| 20260831010202 | 15 | 78 | 0.0 | 1.6 | 0.00 | 0.05 | 0.05 | 64 | 1015.5 |
| 20260831005703 | 15 | 78 | 0.0 | 1.6 | 0.00 | 0.05 | 0.05 | 64 | 1015.5 |
| 20260831005204 | 15 | 78 | 0.0 | 1.6 | 0.00 | 0.05 | 0.05 | 64 | 1015.5 |
| 20260831004704 | 15 | 78 | 0.0 | 1.6 | 0.00 | 0.05 | 0.05 | 62 | 1015.5 |
| 20260831004202 | 15 | 78 | 0.0 | 1.6 | 0.00 | 0.05 | 0.05 | 62 | 1015.6 |
| 20260831003702 | 15 | 78 | 0.0 | 3.2 | 0.00 | 0.05 | 0.05 | 59 | 1015.7 |
| 20260831003202 | 15 | 78 | 1.6 | 4.8 | 0.00 | 0.05 | 0.05 | 61 | 1015.6 |
| 20260831002705 | 15 | 87 | 1.6 | 4.8 | 0.00 | 0.05 | 0.05 | 59 | 1015.6 |
| 20260831001702 | 15 | 74 | 0.0 | 1.6 | 0.00 | 0.05 | 0.05 | 59 | 1015.6 |
| 20260831001202 | 15 | 345 | 0.0 | 1.6 | 0.00 | 0.05 | 0.05 | 61 | 1015.5 |
| 20260831000702 | 15 | 288 | 0.0 | 1.6 | 0.00 | 0.05 | 0.05 | 62 | 1015.4 |
| 20260831000203 | 15 | 232 | 0.0 | 0.0 | 0.00 | 0.05 | 0.05 | 62 | 1015.4 |
| 20260830235702 | 15 | 232 | 0.0 | 0.0 | 0.00 | 0.05 | 0.05 | 62 | 1015.5 |
| 20260830235203 | 15 | 232 | 0.0 | 0.0 | 0.00 | 0.05 | 0.05 | 63 | 1015.5 |
| 20260830234203 | 15 | 232 | 0.0 | 1.6 | 0.00 | 0.05 | 0.05 | 64 | 1015.5 |
| 20260830233202 | 15 | 99 | 0.0 | 1.6 | 0.00 | 0.05 | 0.05 | 64 | 1015.5 |
| 20260830232702 | 15 | 99 | 0.0 | 1.6 | 0.00 | 0.05 | 0.05 | 63 | 1015.5 |
| 20260830232203 | 15 | 98 | 0.0 | 1.6 | 0.00 | 0.05 | 0.05 | 62 | 1015.5 |
| 20260830231702 | 15 | 98 | 0.0 | 3.2 | 0.00 | 0.05 | 0.05 | 65 | 1015.5 |
| 20260830231202 | 14 | 98 | 0.0 | 3.2 | 0.00 | 0.05 | 0.05 | 65 | 1015.5 |
| 20260830230703 | 14 | 82 | 0.0 | 1.6 | 0.00 | 0.05 | 0.05 | 66 | 1015.5 |
| 20260830225703 | 14 | 82 | 0.0 | 1.6 | 0.00 | 0.05 | 0.05 | 73 | 1015.6 |
| 20260830225202 | 14 | 80 | 0.0 | 1.6 | 0.00 | 0.05 | 0.05 | 72 | 1015.5 |
| 20260830224202 | 13 | 104 | 0.0 | 1.6 | 0.00 | 0.05 | 0.05 | 74 | 1015.5 |
| 20260830223706 | 13 | 103 | 0.0 | 1.6 | 0.00 | 0.05 | 0.05 | 71 | 1015.6 |
| 20260830223206 | 14 | 104 | 0.0 | 1.6 | 0.00 | 0.05 | 0.05 | 71 | 1015.6 |
| 20260830222706 | 13 | 104 | 0.0 | 1.6 | 0.00 | 0.05 | 0.05 | 72 | 1015.5 |
| 20260830222202 | 13 | 138 | 0.0 | 1.6 | 0.00 | 0.05 | 0.05 | 70 | 1015.5 |
| 20260830221705 | 13 | 138 | 0.0 | 3.2 | 0.00 | 0.05 | 0.05 | 70 | 1015.6 |
| 20260830221203 | 13 | 119 | 0.0 | 3.2 | 0.00 | 0.05 | 0.05 | 74 | 1015.6 |
| 20260830220703 | 13 | 101 | 0.0 | 1.6 | 0.00 | 0.05 | 0.05 | 71 | 1015.7 |
| 20260830220208 | 13 | 164 | 0.0 | 1.6 | 0.00 | 0.05 | 0.05 | 71 | 1015.6 |
| 20260830215704 | 13 | 164 | 0.0 | 1.6 | 0.00 | 0.05 | 0.05 | 70 | 1015.6 |
| 20260830215202 | 13 | 130 | 0.0 | 3.2 | 0.00 | 0.05 | 0.05 | 70 | 1015.7 |
| 20260830214704 | 13 | 214 | 0.0 | 3.2 | 0.00 | 0.05 | 0.05 | 70 | 1015.7 |
| 20260830214202 | 13 | 92 | 0.0 | 3.2 | 0.00 | 0.05 | 0.05 | 69 | 1015.9 |
| 20260830213703 | 14 | 96 | 3.2 | 11.3 | 0.00 | 0.05 | 0.05 | 70 | 1015.9 |
| 20260830213203 | 13 | 96 | 4.8 | 11.3 | 0.00 | 0.05 | 0.05 | 66 | 1015.7 |
| 20260830212703 | 13 | 80 | 1.6 | 9.7 | 0.00 | 0.05 | 0.05 | 67 | 1015.7 |
| 20260830212204 | 13 | 88 | 0.0 | 1.6 | 0.00 | 0.05 | 0.05 | 71 | 1015.9 |
| 20260830211706 | 13 | 98 | 0.0 | 3.2 | 0.00 | 0.05 | 0.05 | 71 | 1015.9 |
| 20260830210702 | 13 | 86 | 0.0 | 3.2 | 0.00 | 0.05 | 0.05 | 72 | 1016.0 |
| 20260830210203 | 13 | 14 | 0.0 | 3.2 | 0.00 | 0.05 | 0.05 | 72 | 1016.0 |
| 20260830205704 | 13 | 14 | 0.0 | 3.2 | 0.00 | 0.05 | 0.05 | 71 | 1016.0 |
| 20260830204705 | 13 | 125 | 0.0 | 3.2 | 0.00 | 0.05 | 0.05 | 72 | 1015.9 |
| 20260830204202 | 13 | 134 | 0.0 | 4.8 | 0.00 | 0.05 | 0.05 | 72 | 1015.9 |
| 20260830203703 | 13 | 236 | 1.6 | 4.8 | 0.00 | 0.05 | 0.05 | 74 | 1015.7 |
| 20260830203202 | 13 | 109 | 1.6 | 4.8 | 0.00 | 0.05 | 0.05 | 70 | 1015.6 |
| 20260830202702 | 13 | 101 | 1.6 | 4.8 | 0.00 | 0.05 | 0.05 | 72 | 1015.6 |
| 20260830202158 | 13 | 322 | 0.0 | 3.2 | 0.00 | 0.05 | 0.05 | 74 | 1015.7 |
| 20260830201146 | 12 | 98 | 1.6 | 4.8 | 0.00 | 0.05 | 0.05 | 75 | 1015.7 |
| 20260830200640 | 12 | 195 | 1.6 | 4.8 | 0.00 | 0.05 | 0.05 | 73 | 1015.9 |
| 20260830200134 | 12 | 100 | 1.6 | 3.2 | 0.00 | 0.05 | 0.05 | 74 | 1015.6 |
| 20260830195135 | 12 | 114 | 1.6 | 6.4 | 0.00 | 0.05 | 0.05 | 74 | 1015.7 |
| 20260830194633 | 12 | 111 | 1.6 | 6.4 | 0.00 | 0.05 | 0.05 | 75 | 1015.6 |
| 20260830194133 | 12 | 98 | 0.0 | 3.2 | 0.00 | 0.05 | 0.05 | 76 | 1015.6 |
| 20260830193630 | 12 | 225 | 0.0 | 3.2 | 0.00 | 0.05 | 0.05 | 78 | 1015.6 |
| 20260830193134 | 12 | 265 | 0.0 | 1.6 | 0.00 | 0.05 | 0.05 | 75 | 1015.5 |
| 20260830192631 | 12 | 236 | 0.0 | 4.8 | 0.00 | 0.05 | 0.05 | 77 | 1015.4 |
| 20260830191631 | 12 | 125 | 1.6 | 3.2 | 0.00 | 0.05 | 0.05 | 77 | 1015.4 |
| 20260830190631 | 12 | 107 | 1.6 | 4.8 | 0.00 | 0.05 | 0.05 | 78 | 1015.4 |
| 20260830185630 | 11 | 290 | 0.0 | 4.8 | 0.00 | 0.05 | 0.05 | 76 | 1015.3 |
| 20260830185131 | 11 | 123 | 1.6 | 9.7 | 0.00 | 0.05 | 0.05 | 78 | 1015.3 |
| 20260830184631 | 11 | 224 | 1.6 | 9.7 | 0.00 | 0.05 | 0.05 | 77 | 1015.3 |
| 20260830184131 | 11 | 119 | 1.6 | 4.8 | 0.00 | 0.05 | 0.05 | 80 | 1015.3 |
| 20260830183631 | 11 | 41 | 1.6 | 4.8 | 0.00 | 0.05 | 0.05 | 76 | 1015.3 |
| 20260830183131 | 11 | 238 | 0.0 | 3.2 | 0.00 | 0.05 | 0.05 | 77 | 1015.2 |
| 20260830182633 | 11 | 105 | 0.0 | 3.2 | 0.00 | 0.05 | 0.05 | 81 | 1015.2 |
| 20260830182132 | 11 | 118 | 1.6 | 4.8 | 0.00 | 0.05 | 0.05 | 80 | 1015.2 |
| 20260830181631 | 11 | 130 | 1.6 | 4.8 | 0.00 | 0.05 | 0.05 | 79 | 1015.1 |
| 20260830181131 | 11 | 103 | 1.6 | 4.8 | 0.00 | 0.05 | 0.05 | 79 | 1015.2 |
| 20260830180136 | 11 | 217 | 1.6 | 6.4 | 0.00 | 0.05 | 0.05 | 83 | 1015.2 |
| 20260830175631 | 11 | 130 | 1.6 | 6.4 | 0.00 | 0.05 | 0.05 | 80 | 1015.1 |
| 20260830175132 | 11 | 187 | 0.0 | 3.2 | 0.00 | 0.05 | 0.05 | 83 | 1015.0 |
| 20260830174631 | 11 | 111 | 1.6 | 6.4 | 0.03 | 0.05 | 0.05 | 83 | 1015.0 |
| 20260830174131 | 11 | 135 | 1.6 | 9.7 | 0.03 | 0.05 | 0.05 | 83 | 1014.9 |
| 20260830173630 | 11 | 98 | 1.6 | 9.7 | 0.03 | 0.05 | 0.05 | 81 | 1014.9 |
| 20260830173131 | 11 | 214 | 3.2 | 8.0 | 0.03 | 0.05 | 0.05 | 84 | 1014.9 |
| 20260830172631 | 11 | 171 | 4.8 | 8.0 | 0.03 | 0.05 | 0.05 | 82 | 1014.9 |
| 20260830172130 | 11 | 73 | 4.8 | 8.0 | 0.03 | 0.05 | 0.05 | 82 | 1014.8 |
| 20260830171629 | 11 | 104 | 3.2 | 6.4 | 0.03 | 0.05 | 0.05 | 82 | 1014.9 |
| 20260830171130 | 11 | 78 | 3.2 | 6.4 | 0.03 | 0.05 | 0.05 | 81 | 1014.9 |
| 20260830170630 | 11 | 91 | 1.6 | 6.4 | 0.03 | 0.05 | 0.05 | 82 | 1014.6 |
| 20260830170129 | 11 | 114 | 1.6 | 4.8 | 0.03 | 0.05 | 0.05 | 84 | 1014.8 |
| 20260830165629 | 11 | 91 | 1.6 | 4.8 | 0.03 | 0.05 | 0.05 | 84 | 1014.8 |
| 20260830165130 | 11 | 119 | 1.6 | 4.8 | 0.03 | 0.05 | 0.05 | 85 | 1014.8 |
| 20260830164630 | 11 | 106 | 0.0 | 3.2 | 0.00 | 0.03 | 0.03 | 83 | 1014.6 |
| 20260830163628 | 10 | 289 | 0.0 | 1.6 | 0.03 | 0.03 | 0.03 | 83 | 1014.5 |
| 20260830163130 | 10 | 129 | 0.0 | 3.2 | 0.03 | 0.03 | 0.03 | 87 | 1014.5 |
| 20260830162629 | 10 | 207 | 0.0 | 3.2 | 0.03 | 0.03 | 0.03 | 88 | 1014.6 |
| 20260830162131 | 11 | 240 | 0.0 | 0.0 | 0.03 | 0.03 | 0.03 | 86 | 1014.5 |
| 20260830161629 | 11 | 295 | 0.0 | 0.0 | 0.03 | 0.03 | 0.03 | 85 | 1014.5 |
| 20260830161129 | 11 | 295 | 0.0 | 0.0 | 0.03 | 0.03 | 0.03 | 84 | 1014.5 |
| 20260830155624 | 11 | 148 | 1.6 | 6.4 | 0.03 | 0.03 | 0.03 | 78 | 1014.5 |
| 20260830155118 | 11 | 114 | 1.6 | 6.4 | 0.03 | 0.03 | 0.03 | 77 | 1014.6 |
| 20260830154613 | 11 | 257 | 0.0 | 1.6 | 0.03 | 0.03 | 0.00 | 75 | 1014.6 |
| 20260830154106 | 11 | 254 | 0.0 | 1.6 | 0.00 | 0.00 | 0.00 | 70 | 1014.6 |
| 20260830153603 | 12 | 239 | 0.0 | 1.6 | 0.00 | 0.00 | 0.00 | 73 | 1014.6 |
| 20260830153105 | 12 | 239 | 0.0 | 0.0 | 0.00 | 0.00 | 0.00 | 72 | 1014.6 |
| 20260830152606 | 12 | 239 | 0.0 | 1.6 | 0.00 | 0.00 | 0.00 | 71 | 1014.6 |
| 20260830152104 | 12 | 239 | 0.0 | 1.6 | 0.00 | 0.00 | 0.00 | 73 | 1014.8 |
| 20260830151102 | 11 | 227 | 0.0 | 1.6 | 0.00 | 0.00 | 0.00 | 69 | 1014.6 |
| 20260830150606 | 11 | 227 | 0.0 | 1.6 | 0.00 | 0.00 | 0.00 | 70 | 1014.6 |
| 20260830150105 | 11 | 227 | 0.0 | 1.6 | 0.00 | 0.00 | 0.00 | 67 | 1014.8 |
| 20260830145604 | 12 | 227 | 0.0 | 3.2 | 0.00 | 0.00 | 0.00 | 70 | 1014.8 |
| 20260830145103 | 12 | 72 | 0.0 | 3.2 | 0.00 | 0.00 | 0.00 | 69 | 1014.8 |
| 20260830144102 | 12 | 100 | 0.0 | 1.6 | 0.00 | 0.00 | 0.00 | 66 | 1014.6 |
| 20260830143603 | 12 | 39 | 0.0 | 1.6 | 0.00 | 0.00 | 0.00 | 66 | 1014.8 |
| 20260830143107 | 12 | 29 | 0.0 | 3.2 | 0.00 | 0.00 | 0.00 | 65 | 1014.8 |
| 20260830142603 | 11 | 236 | 0.0 | 3.2 | 0.00 | 0.00 | 0.00 | 69 | 1014.6 |
| 20260830141604 | 11 | 226 | 0.0 | 3.2 | 0.00 | 0.00 | 0.00 | 70 | 1014.6 |
| 20260830141103 | 11 | 237 | 1.6 | 9.7 | 0.00 | 0.00 | 0.00 | 70 | 1014.6 |
| 20260830140609 | 11 | 240 | 1.6 | 9.7 | 0.00 | 0.00 | 0.00 | 71 | 1014.6 |
| 20260830140105 | 11 | 74 | 0.0 | 3.2 | 0.00 | 0.00 | 0.00 | 76 | 1014.6 |
| 20260830135606 | 11 | 142 | 0.0 | 3.2 | 0.00 | 0.00 | 0.00 | 75 | 1014.6 |
| 20260830135102 | 11 | 349 | 0.0 | 3.2 | 0.00 | 0.00 | 0.00 | 71 | 1014.5 |
| 20260830134103 | 12 | 26 | 0.0 | 3.2 | 0.00 | 0.00 | 0.00 | 69 | 1014.5 |
| 20260830133605 | 12 | 10 | 0.0 | 3.2 | 0.00 | 0.00 | 0.00 | 63 | 1014.5 |
| 20260830132103 | 12 | 331 | 0.0 | 1.6 | 0.00 | 0.00 | 0.00 | 61 | 1014.4 |
| 20260830131607 | 12 | 331 | 0.0 | 3.2 | 0.00 | 0.00 | 0.00 | 61 | 1014.4 |
| 20260830130604 | 12 | 321 | 0.0 | 3.2 | 0.00 | 0.00 | 0.00 | 61 | 1014.3 |
| 20260830125604 | 12 | 89 | 0.0 | 1.6 | 0.00 | 0.00 | 0.00 | 61 | 1014.2 |
| 20260830125102 | 13 | 98 | 0.0 | 1.6 | 0.00 | 0.00 | 0.00 | 61 | 1014.1 |
| 20260830124605 | 13 | 95 | 0.0 | 1.6 | 0.00 | 0.00 | 0.00 | 58 | 1014.0 |
| 20260830124100 | 13 | 95 | 0.0 | 1.6 | 0.00 | 0.00 | 0.00 | 58 | 1013.9 |
| 20260830123549 | 12 | 146 | 0.0 | 1.6 | 0.00 | 0.00 | 0.00 | 58 | 1013.8 |
| 20260830123049 | 12 | 246 | 0.0 | 1.6 | 0.00 | 0.00 | 0.00 | 62 | 1013.8 |
| 20260830122538 | 13 | 224 | 0.0 | 1.6 | 0.00 | 0.00 | 0.00 | 60 | 1013.8 |
| 20260830122031 | 13 | 223 | 0.0 | 1.6 | 0.00 | 0.00 | 0.00 | 58 | 1013.8 |
| 20260830121528 | 13 | 223 | 0.0 | 3.2 | 0.00 | 0.00 | 0.00 | 58 | 1013.8 |
| 20260830121020 | 13 | 299 | 0.0 | 3.2 | 0.00 | 0.00 | 0.00 | 58 | 1013.8 |
| 20260830120513 | 13 | 231 | 0.0 | 0.0 | 0.00 | 0.00 | 0.00 | 58 | 1013.8 |
| 20260830120015 | 13 | 231 | 0.0 | 0.0 | 0.00 | 0.00 | 0.00 | 58 | 1013.8 |
| 20260830115512 | 13 | 233 | 0.0 | 1.6 | 0.00 | 0.00 | 0.00 | 58 | 1013.6 |
| 20260830115010 | 13 | 194 | 0.0 | 1.6 | 0.00 | 0.00 | 0.00 | 59 | 1013.4 |
| 20260830114512 | 13 | 194 | 0.0 | 1.6 | 0.00 | 0.00 | 0.00 | 58 | 1013.7 |
| 20260830113510 | 13 | 207 | 0.0 | 3.2 | 0.00 | 0.00 | 0.00 | 58 | 1013.8 |
| 20260830113007 | 13 | 232 | 0.0 | 1.6 | 0.00 | 0.00 | 0.00 | 58 | 1013.7 |
| 20260830112508 | 13 | 242 | 0.0 | 1.6 | 0.00 | 0.00 | 0.00 | 57 | 1013.7 |
| 20260830112005 | 13 | 242 | 0.0 | 1.6 | 0.00 | 0.00 | 0.00 | 57 | 1013.7 |
| 20260830111507 | 13 | 242 | 0.0 | 1.6 | 0.00 | 0.00 | 0.00 | 56 | 1013.7 |
| 20260830111005 | 13 | 219 | 0.0 | 1.6 | 0.00 | 0.00 | 0.00 | 56 | 1013.6 |